Location: L�Ave Maria
(50.7161°N, 1.5911°E)
Time: 23:52:53
(UTC+00:00)

Cosmos 1869 - Pass Details

Date: 10 July 2020
Orbit: 519 x 563 km, 82.5° (Epoch: 14 August)

Event Time Altitude Azimuth Distance (km) Brightness Sun altitude
Rises 21:25:00 0° 348° (NNW) 2,716 8.2 -9.7°
Reaches altitude 10° 21:27:09 10° 347° (NNW) 1,826 7.2 -9.9°
Maximum altitude 21:31:10 79° 263° (W) 568 3.4 -10.2°
Enters shadow 21:34:59 11° 176° (S) 1,746 5.3 -10.6°
